[[{"header":{"parameterUnit":"m.s-1","parameterCategory":2,"la1":30.2992,"la2":30.254,"lo1":-89.0895,"lo2":-89.0443,"dy":0.0025,"dx":0.0025,"nx":19,"ny":19,"refTime":"2026-04-08T03:00:00:Z","depth":"0","parameterNumber":2,"parameterNumberName":"U-component_of_CURRENTS"},"data":[0,0,0,0.1829,0.1829,0.1819,0.1818,0.18,0.18,0,0,0,0,0,0,0,0,0,0,0,0.1826,0.1826,0.1829,0.1829,0.1819,0.1818,0.18,0.18,0,0,0,0,0,0,0,0,0,0,0,0.1826,0.1826,0.1826,0.1829,0.1819,0.1818,0.18,0.1806,0,0,0,0,0,0,0,0,0,0,0.1816,0.1817,0.1826,0.1826,0.1829,0.1819,0.1818,0.1806,0.1806,0.1808,0,0.181,0,0.1814,0.18,0.18,0,0,0,0.1816,0.1818,0.182,0.1826,0.1829,0.1819,0.182,0.1806,0.1805,0.1807,0.181,0.181,0.1814,0.18,0.18,0.1839,0.1839,0,0,0.1817,0.1818,0.182,0.182,0.1833,0.182,0.1819,0.1805,0.1804,0.181,0.181,0.1813,0.18,0.18,0.1839,0.1839,0,0,0,0.1827,0.1818,0.182,0.182,0.1824,0.182,0.1819,0.1805,0.1807,0.1809,0.1813,0.18,0.18,0.1838,0.1839,0.1867,0,0,0,0.1827,0.1826,0.1821,0.182,0.1824,0.1815,0.1819,0.1808,0.1806,0.1813,0.18,0.18,0.1838,0.1838,0.1865,0.1866,0,0,0,0.1825,0.1825,0.1827,0.1821,0.1823,0.1816,0.1816,0.1807,0.1809,0.18,0.18,0.1837,0.1838,0.1864,0.1864,0.1871,0,0,0,0.1822,0.1815,0.1827,0.1822,0.1824,0.1827,0.1816,0.1813,0.1806,0.18,0.1838,0.1839,0.1863,0.1862,0.187,0.179,0.1789,0,0,0.1809,0.1813,0.181,0.1821,0.182,0.1827,0.184,0.1827,0.1825,0.1838,0.1839,0.1866,0.1864,0.1871,0.1851,0.1848,0,0,0,0.1803,0.1795,0.1798,0.1803,0.1817,0.1838,0.1838,0.1851,0.1869,0.183,0.188,0.1877,0.1881,0.183,0.1829,0.1611,0.1844,0.1843,0.1843,0.1751,0.177,0.1762,0.1787,0.1805,0.1847,0.187,0.1893,0.1888,0.1912,0.1911,0.1949,0.1897,0.1895,0.1672,0.1929,0.1929,0.193,0.193,0.1706,0.1686,0.1735,0.1735,0.1787,0.1812,0.1891,0.1915,0.1963,0.1955,0.1958,0.1876,0.1894,0.1657,0.1932,0.1931,0.1931,0.1931,0.1931,0.1637,0.163,0.1651,0.1669,0.1708,0.1778,0.1825,0.1902,0.1968,0.1995,0.1926,0.1924,0.1704,0.1993,0.1993,0.1993,0.1993,0.1993,0.1993,0.1545,0.1569,0.1558,0.1589,0.1604,0.1656,0.1778,0.1834,0.1907,0.1943,0.1942,0.1683,0.1968,0.1952,0.1994,0.1994,0.1994,0.1994,0.1994,0.1438,0.146,0.1436,0.1444,0.1479,0.1444,0.1604,0.1687,0.1782,0.1798,0.1608,0.1914,0.1891,0.1891,0.1873,0.1892,0.1892,0.1892,0.1892,0.1362,0.1372,0.1329,0.1316,0.1321,0.1345,0.1271,0.135,0.1421,0.1395,0.1444,0.1378,0.1392,0.1336,0.1349,0.1319,0.1197,0.1195,0.1194,0.1303,0.13,0.1235,0.1227,0.1234,0.1198,0.1014,0.087,0.1011,0.1146,0.1154,0.1183,0.1069,0.1109,0.101,0.1045,0.0994,0,0]},{"header":{"parameterUnit":"m.s-1","parameterCategory":2,"la1":30.2992,"la2":30.254,"lo1":-89.0895,"lo2":-89.0443,"dy":0.0025,"dx":0.0025,"nx":19,"ny":19,"refTime":"2026-04-08T03:00:00:Z","depth":"0","parameterNumber":3,"parameterNumberName":"V-component_of_CURRENTS"},"data":[0,0,0,-0.0323,-0.0324,-0.0376,-0.0376,-0.0431,-0.0431,0,0,0,0,0,0,0,0,0,0,0,-0.03,-0.03,-0.0323,-0.0324,-0.0376,-0.0376,-0.0431,-0.0431,0,0,0,0,0,0,0,0,0,0,0,-0.03,-0.03,-0.03,-0.0324,-0.0376,-0.0376,-0.0431,-0.0396,0,0,0,0,0,0,0,0,0,0,-0.0348,-0.0322,-0.03,-0.03,-0.0324,-0.0376,-0.0376,-0.0395,-0.0398,-0.0401,0,-0.0401,0,-0.0416,-0.0434,-0.0434,0,0,0,-0.0331,-0.0318,-0.0336,-0.03,-0.0324,-0.0376,-0.0354,-0.0397,-0.0401,-0.0406,-0.0402,-0.0405,-0.0417,-0.0434,-0.0434,-0.0425,-0.0424,0,0,-0.0328,-0.0309,-0.0333,-0.0338,-0.0327,-0.0353,-0.0356,-0.04,-0.0397,-0.0402,-0.0406,-0.0418,-0.0434,-0.0435,-0.0425,-0.0425,0,0,0,-0.0315,-0.0307,-0.0324,-0.0335,-0.0345,-0.0354,-0.0358,-0.0395,-0.0401,-0.0407,-0.0418,-0.0435,-0.0435,-0.0426,-0.0425,-0.0353,0,0,0,-0.0314,-0.0299,-0.0322,-0.0311,-0.0344,-0.0371,-0.0352,-0.0398,-0.0404,-0.0418,-0.0435,-0.0435,-0.0426,-0.0425,-0.0356,-0.0312,0,0,0,-0.0299,-0.0297,-0.0301,-0.031,-0.033,-0.0371,-0.038,-0.04,-0.041,-0.0434,-0.0436,-0.0426,-0.0425,-0.0358,-0.0317,-0.0265,0,0,0,-0.0282,-0.0268,-0.03,-0.0286,-0.0329,-0.0334,-0.038,-0.0392,-0.0407,-0.0435,-0.0426,-0.0425,-0.0359,-0.032,-0.0268,-0.0195,-0.0173,0,0,-0.0253,-0.0264,-0.0255,-0.0285,-0.0272,-0.0328,-0.0309,-0.0354,-0.0394,-0.0414,-0.0414,-0.0355,-0.0317,-0.0265,-0.014,-0.012,0,0,0,-0.0239,-0.0231,-0.0232,-0.0234,-0.0252,-0.0253,-0.0304,-0.0322,-0.0344,-0.0398,-0.0356,-0.0334,-0.0304,-0.0267,-0.0251,-0.0323,-0.0421,-0.0421,-0.0421,-0.0166,-0.0184,-0.0159,-0.0175,-0.0177,-0.0205,-0.0205,-0.0239,-0.0293,-0.029,-0.0276,-0.0187,-0.0147,-0.0135,-0.021,-0.0284,-0.0284,-0.0284,-0.0284,-0.0108,-0.009,-0.0102,-0.0088,-0.0094,-0.0085,-0.011,-0.0143,-0.0143,-0.0208,-0.0182,-0.0193,-0.0113,-0.02,-0.0279,-0.028,-0.028,-0.0281,-0.0281,-0.0053,-0.0046,-0.0042,-0.0019,0.0009,-0.0009,0.0041,-0.0007,-0.0062,-0.0043,-0.0015,-0.0016,-0.0091,-0.0036,-0.0035,-0.0035,-0.0035,-0.0034,-0.0034,-0.0,0.0006,0.0035,0.005,0.0077,0.0116,0.0122,0.0138,0.0128,0.0083,0.0083,-0.0061,-0.0112,-0.012,-0.0027,-0.0028,-0.0029,-0.003,-0.003,0.0057,0.0055,0.0101,0.0128,0.0187,0.0245,0.0268,0.0326,0.0324,0.0338,0.0142,0.0148,0.0135,0.0121,0.0119,0.0267,0.0267,0.0267,0.0268,0.0097,0.0097,0.0156,0.0208,0.0277,0.0306,0.0403,0.0434,0.0359,0.0294,0.0222,0.0164,0.0155,0.0137,0.0123,0.0118,0.0263,0.0262,0.0262,0.0134,0.0146,0.0192,0.0231,0.0304,0.0373,0.0425,0.0421,0.0328,0.0249,0.0109,0.0109,0.0004,-0.0004,-0.0053,-0.0066,-0.0084,0,0]}],[{"header":{"parameterUnit":"m.s-1","parameterCategory":2,"la1":30.2992,"la2":30.254,"lo1":-89.0895,"lo2":-89.0443,"dy":0.0025,"dx":0.0025,"nx":19,"ny":19,"refTime":"2026-04-08T03:00:00:Z","depth":"2","parameterNumber":2,"parameterNumberName":"U-component_of_CURRENTS"},"data":[0,0,0,0.1872,0.1872,0.1862,0.1862,0.1846,0.1846,0,0,0,0,0,0,0,0,0,0,0,0.1869,0.1869,0.1872,0.1873,0.1862,0.1862,0.1846,0.1846,0,0,0,0,0,0,0,0,0,0,0,0.1869,0.1869,0.1869,0.1873,0.1862,0.1862,0.1846,0.1851,0,0,0,0,0,0,0,0,0,0,0.186,0.1861,0.1869,0.1869,0.1873,0.1862,0.1862,0.1851,0.1851,0.1854,0,0.1856,0,0.186,0.1846,0.1846,0,0,0,0.186,0.1862,0.1864,0.1869,0.1873,0.1863,0.1863,0.1851,0.1851,0.1853,0.1856,0.1856,0.1859,0.1846,0.1846,0.1887,0.1887,0,0,0.186,0.1861,0.1865,0.1864,0.1876,0.1864,0.1863,0.1851,0.185,0.1856,0.1855,0.1859,0.1846,0.1846,0.1886,0.1887,0,0,0,0.1871,0.1862,0.1864,0.1864,0.1868,0.1864,0.1863,0.185,0.1852,0.1855,0.1859,0.1846,0.1846,0.1886,0.1886,0.1914,0,0,0,0.187,0.1869,0.1864,0.1864,0.1868,0.186,0.1862,0.1853,0.1852,0.1859,0.1846,0.1846,0.1885,0.1886,0.1912,0.1912,0,0,0,0.1869,0.1868,0.187,0.1864,0.1867,0.186,0.1861,0.1852,0.1855,0.1846,0.1846,0.1885,0.1886,0.191,0.191,0.1918,0,0,0,0.1866,0.1858,0.187,0.1865,0.1867,0.1871,0.1861,0.1858,0.1852,0.1846,0.1885,0.1886,0.191,0.1909,0.1917,0.1843,0.1843,0,0,0.1852,0.1856,0.1854,0.1864,0.1864,0.1871,0.1885,0.1873,0.1871,0.1885,0.1886,0.1913,0.191,0.1918,0.1904,0.1902,0,0,0,0.1846,0.1839,0.1842,0.1846,0.1862,0.1883,0.1884,0.1897,0.1915,0.1876,0.1926,0.1924,0.1928,0.1882,0.188,0.1891,0.1891,0.1891,0.1891,0.1794,0.1814,0.1806,0.1831,0.1849,0.1892,0.1915,0.1939,0.1934,0.1959,0.1957,0.1995,0.1948,0.1946,0.1976,0.1976,0.1976,0.1976,0.1976,0.1749,0.1729,0.1779,0.1779,0.1832,0.1857,0.1936,0.196,0.2009,0.2001,0.2004,0.1926,0.1945,0.1978,0.1978,0.1978,0.1977,0.1977,0.1977,0.1679,0.1673,0.1694,0.1712,0.1752,0.1823,0.187,0.1946,0.2013,0.204,0.1976,0.1974,0.1994,0.2038,0.2038,0.2038,0.2038,0.2038,0.2038,0.1587,0.1611,0.16,0.1632,0.1647,0.1699,0.1822,0.1878,0.1955,0.1993,0.1992,0.2016,0.2014,0.1998,0.2039,0.2039,0.2039,0.2039,0.2039,0.148,0.1502,0.1478,0.1486,0.1522,0.153,0.1656,0.1742,0.1829,0.1848,0.1965,0.1967,0.1945,0.1945,0.1927,0.1948,0.1948,0.1948,0.1948,0.1403,0.1413,0.137,0.1358,0.1364,0.1445,0.1447,0.1566,0.1729,0.1813,0.1819,0.1788,0.1794,0.1762,0.1767,0.1745,0.1718,0.1718,0.1718,0.1344,0.1341,0.1277,0.1269,0.1277,0.134,0.1324,0.1362,0.1536,0.1709,0.1783,0.1932,0.1901,0.1906,0.1868,0.1871,0.184,0,0]},{"header":{"parameterUnit":"m.s-1","parameterCategory":2,"la1":30.2992,"la2":30.254,"lo1":-89.0895,"lo2":-89.0443,"dy":0.0025,"dx":0.0025,"nx":19,"ny":19,"refTime":"2026-04-08T03:00:00:Z","depth":"2","parameterNumber":3,"parameterNumberName":"V-component_of_CURRENTS"},"data":[0,0,0,-0.0319,-0.0319,-0.0372,-0.0372,-0.0427,-0.0427,0,0,0,0,0,0,0,0,0,0,0,-0.0296,-0.0296,-0.0318,-0.032,-0.0372,-0.0372,-0.0427,-0.0427,0,0,0,0,0,0,0,0,0,0,0,-0.0296,-0.0296,-0.0296,-0.032,-0.0372,-0.0372,-0.0427,-0.0392,0,0,0,0,0,0,0,0,0,0,-0.0344,-0.0317,-0.0296,-0.0296,-0.032,-0.0372,-0.0372,-0.0391,-0.0394,-0.0397,0,-0.0397,0,-0.0412,-0.043,-0.043,0,0,0,-0.0327,-0.0314,-0.0332,-0.0296,-0.032,-0.0372,-0.035,-0.0393,-0.0397,-0.0402,-0.0398,-0.04,-0.0413,-0.043,-0.043,-0.0421,-0.042,0,0,-0.0324,-0.0305,-0.0329,-0.0334,-0.0323,-0.0349,-0.0352,-0.0395,-0.0393,-0.0398,-0.0402,-0.0414,-0.043,-0.0431,-0.0421,-0.0421,0,0,0,-0.0311,-0.0303,-0.0319,-0.0331,-0.0341,-0.035,-0.0354,-0.0391,-0.0397,-0.0403,-0.0414,-0.0431,-0.0431,-0.0422,-0.0421,-0.0349,0,0,0,-0.0309,-0.0295,-0.0318,-0.0307,-0.034,-0.0367,-0.0348,-0.0394,-0.04,-0.0414,-0.0431,-0.0431,-0.0422,-0.0421,-0.0352,-0.0308,0,0,0,-0.0295,-0.0293,-0.0297,-0.0306,-0.0326,-0.0367,-0.0376,-0.0396,-0.0406,-0.043,-0.0432,-0.0422,-0.0421,-0.0354,-0.0313,-0.0261,0,0,0,-0.0278,-0.0264,-0.0296,-0.0282,-0.0325,-0.033,-0.0376,-0.0388,-0.0403,-0.0431,-0.0422,-0.0421,-0.0355,-0.0316,-0.0264,-0.0199,-0.0178,0,0,-0.0249,-0.026,-0.0252,-0.0281,-0.0268,-0.0324,-0.0305,-0.035,-0.039,-0.0409,-0.041,-0.0351,-0.0313,-0.0262,-0.0144,-0.0124,0,0,0,-0.0235,-0.0227,-0.0228,-0.023,-0.0249,-0.0249,-0.03,-0.0318,-0.034,-0.0394,-0.0352,-0.033,-0.03,-0.0268,-0.0252,-0.0416,-0.0417,-0.0417,-0.0417,-0.0163,-0.0181,-0.0156,-0.0172,-0.0174,-0.0201,-0.0202,-0.0235,-0.0289,-0.0286,-0.0272,-0.0184,-0.0149,-0.0137,-0.0281,-0.028,-0.028,-0.028,-0.028,-0.0105,-0.0087,-0.0099,-0.0085,-0.009,-0.0082,-0.0106,-0.0139,-0.014,-0.0204,-0.0179,-0.0194,-0.0115,-0.0274,-0.0275,-0.0276,-0.0276,-0.0277,-0.0277,-0.0051,-0.0044,-0.004,-0.0017,0.0011,-0.0007,0.0044,-0.0003,-0.0058,-0.004,-0.0017,-0.0018,-0.0131,-0.0033,-0.0032,-0.0032,-0.0031,-0.0031,-0.0031,0.0001,0.0007,0.0036,0.0052,0.0078,0.0117,0.0125,0.0141,0.0128,0.008,0.008,-0.01,-0.0108,-0.0116,-0.0024,-0.0025,-0.0026,-0.0027,-0.0027,0.0057,0.0055,0.0101,0.0128,0.0188,0.0234,0.0266,0.0321,0.0321,0.0333,0.0148,0.0141,0.0127,0.0114,0.0111,0.0257,0.0257,0.0257,0.0257,0.0097,0.0097,0.0156,0.0208,0.0277,0.0292,0.037,0.0374,0.0343,0.0291,0.0289,0.0237,0.0226,0.0212,0.0197,0.0192,0.036,0.036,0.0359,0.0134,0.0146,0.0192,0.023,0.0304,0.0347,0.0359,0.0304,0.0287,0.0357,0.024,0.0277,0.0192,0.0177,0.0145,0.0125,0.0113,0,0]}],[{"header":{"parameterUnit":"m.s-1","parameterCategory":2,"la1":30.2992,"la2":30.254,"lo1":-89.0895,"lo2":-89.0443,"dy":0.0025,"dx":0.0025,"nx":19,"ny":19,"refTime":"2026-04-08T03:00:00:Z","depth":"4","parameterNumber":2,"parameterNumberName":"U-component_of_CURRENTS"},"data":[0,0,0,0.1463,0.1465,0.1564,0.1565,0.1641,0.1641,0,0,0,0,0,0,0,0,0,0,0,0.1436,0.1437,0.1462,0.1465,0.1564,0.1565,0.1641,0.1641,0,0,0,0,0,0,0,0,0,0,0,0.1435,0.1437,0.1438,0.1465,0.1564,0.1565,0.1641,0.1578,0,0,0,0,0,0,0,0,0,0,0.1488,0.1476,0.1436,0.1438,0.1466,0.1564,0.1565,0.1575,0.1582,0.1581,0,0.1609,0,0.1623,0.1645,0.1646,0,0,0,0.1464,0.1471,0.1492,0.1438,0.1467,0.1564,0.1519,0.1579,0.1586,0.1589,0.161,0.1613,0.1625,0.1646,0.1646,0.172,0.172,0,0,0.1458,0.1456,0.1487,0.1497,0.1508,0.1516,0.1522,0.1584,0.16,0.161,0.1615,0.1626,0.1646,0.1647,0.1719,0.172,0,0,0,0.1443,0.1453,0.1473,0.1493,0.1514,0.1519,0.1526,0.1597,0.1604,0.1616,0.1627,0.1646,0.1647,0.1719,0.172,0.1741,0,0,0,0.144,0.1444,0.1471,0.1471,0.1513,0.1565,0.1538,0.16,0.1607,0.1627,0.1646,0.1648,0.1719,0.1719,0.1739,0.174,0,0,0,0.1429,0.1442,0.1457,0.1471,0.1513,0.1565,0.1575,0.1602,0.1613,0.1646,0.1648,0.1718,0.1719,0.1738,0.1739,0.1762,0,0,0,0.1417,0.1439,0.1458,0.1488,0.1512,0.156,0.1575,0.1624,0.1654,0.1647,0.1719,0.172,0.1738,0.1737,0.1761,0.155,0,0,0,0.1428,0.1441,0.1455,0.1474,0.1512,0.1545,0.1596,0.1647,0.1664,0.1693,0.1696,0.174,0.1738,0.1762,0.1602,0,0,0,0,0.1447,0.1461,0.1476,0.151,0.1545,0.1592,0.1641,0.1666,0.1721,0.1687,0.1751,0.175,0.1764,0.1637,0.1724,0.1724,0.1723,0.1723,0.1723,0.1444,0.1464,0.149,0.1526,0.1565,0.1632,0.1672,0.1718,0.1734,0.1768,0.1776,0.1819,0.1687,0.179,0.179,0.179,0.179,0.179,0.179,0.1439,0.1442,0.1494,0.1529,0.1586,0.164,0.1714,0.1746,0.1807,0.1807,0.182,0.1679,0.1793,0.1792,0.1792,0.1792,0.1792,0.1791,0.1791,0.1406,0.1409,0.1453,0.151,0.1578,0.1652,0.1699,0.1768,0.1823,0.1846,0.1723,0.1836,0.1824,0.1865,0.1865,0.1865,0.1865,0.1865,0.1866,0.1343,0.1384,0.1418,0.1487,0.153,0.1595,0.1698,0.1726,0.18,0.1721,0.1861,0.1844,0.1841,0.1829,0.1867,0.1867,0.1867,0.1867,0.1867,0.1281,0.132,0.1351,0.1394,0.1468,0.1489,0.1611,0.1614,0.1635,0.1609,0.1652,0.1662,0.1635,0.1638,0.1617,0.1594,0.1591,0.1589,0,0.1236,0.1257,0.1295,0.1327,0.1341,0.1418,0.1375,0.1427,0.1492,0.1447,0.1661,0.171,0.1715,0.1686,0.1685,0.166,0,0,0,0.1202,0.1218,0.1223,0.1267,0.1273,0.1272,0.1351,0.1319,0.1478,0.1427,0.1524,0.1541,0.1738,0.1873,0.1855,0.1852,0.1831,0,0]},{"header":{"parameterUnit":"m.s-1","parameterCategory":2,"la1":30.2992,"la2":30.254,"lo1":-89.0895,"lo2":-89.0443,"dy":0.0025,"dx":0.0025,"nx":19,"ny":19,"refTime":"2026-04-08T03:00:00:Z","depth":"4","parameterNumber":3,"parameterNumberName":"V-component_of_CURRENTS"},"data":[0,0,0,0.0029,0.0029,0.0006,0.0006,-0.0007,-0.0007,0,0,0,0,0,0,0,0,0,0,0,0.0038,0.0038,0.0029,0.0029,0.0006,0.0006,-0.0007,-0.0007,0,0,0,0,0,0,0,0,0,0,0,0.0038,0.0038,0.0037,0.0028,0.0006,0.0006,-0.0007,0.0006,0,0,0,0,0,0,0,0,0,0,0.0026,0.0031,0.0038,0.0037,0.0028,0.0006,0.0006,0.0006,0.0005,0.0009,0,0.0007,0,0.0001,-0.0007,-0.0007,0,0,0,0.0027,0.0032,0.0027,0.0037,0.0028,0.0006,0.0016,0.0006,0.0004,0.0008,0.0006,0.0006,0.0,-0.0007,-0.0007,0.0012,0.0012,0,0,0.0028,0.0032,0.0028,0.0026,0.0024,0.0016,0.0015,0.0005,0.0004,0.0006,0.0005,0.0,-0.0007,-0.0007,0.0012,0.0012,0,0,0,0.0033,0.0033,0.0028,0.0027,0.0022,0.0016,0.0014,0.0004,0.0003,0.0005,0.0,-0.0007,-0.0007,0.0012,0.0012,0.0038,0,0,0,0.0033,0.0036,0.0029,0.0031,0.0022,0.001,0.0014,0.0003,0.0002,0.0,-0.0007,-0.0007,0.0012,0.0012,0.0037,0.0057,0,0,0,0.0038,0.0037,0.0035,0.0031,0.0022,0.001,0.0008,0.0003,-0.0001,-0.0007,-0.0007,0.0011,0.0012,0.0036,0.0055,0.0076,0,0,0,0.0043,0.0038,0.0035,0.0032,0.0022,0.0024,0.0008,0.0004,-0.0,-0.0007,0.0012,0.0012,0.0036,0.0054,0.0075,0.0066,0,0,0,0.0039,0.0038,0.0037,0.0034,0.0043,0.0027,0.0042,0.0025,0.0011,0.0015,0.0015,0.0038,0.0055,0.0076,0.01,0,0,0,0,0.0038,0.0041,0.0042,0.0047,0.0047,0.0061,0.0045,0.0042,0.0039,0.0011,0.0042,0.0052,0.0064,0.0055,0.0015,0.0015,0.0015,0.0015,0.0015,0.0042,0.0047,0.0058,0.007,0.0077,0.0084,0.0091,0.0087,0.0064,0.0068,0.0076,0.0116,0.0107,0.0075,0.0075,0.0075,0.0075,0.0075,0.0075,0.0054,0.0064,0.0082,0.0093,0.0114,0.0129,0.014,0.0129,0.0137,0.011,0.012,0.0087,0.0078,0.0077,0.0077,0.0077,0.0076,0.0076,0.0076,0.0065,0.0071,0.0082,0.0112,0.0144,0.0159,0.0196,0.0188,0.0168,0.0177,0.0162,0.0139,0.0134,0.0177,0.0177,0.0177,0.0177,0.0177,0.0178,0.007,0.0083,0.0103,0.0133,0.0157,0.0196,0.0226,0.0237,0.0221,0.0201,0.0185,0.015,0.0147,0.014,0.018,0.018,0.018,0.0179,0.0179,0.008,0.0086,0.0116,0.0139,0.0197,0.0226,0.0261,0.0273,0.0283,0.027,0.0214,0.0211,0.0203,0.0199,0.0193,0.0251,0.0251,0.0251,0,0.0085,0.009,0.0126,0.0164,0.0211,0.0245,0.0275,0.029,0.0265,0.0249,0.0267,0.0203,0.02,0.0189,0.0186,0.0178,0,0,0,0.0095,0.0104,0.0125,0.0158,0.0209,0.0253,0.0283,0.0277,0.027,0.0281,0.0253,0.0253,0.0227,0.0189,0.0171,0.0167,0.0155,0,0]}]]